Location: ??????
(38.0677°N, 22.9870°E)
Time: 14:00:48
(UTC+00:00)

Cosmos 1814 Rocket - Pass Details

Date: 23 May 2024
Orbit: 743 x 784 km, 74.1° (Epoch: 13 June)

Event Time Altitude Azimuth Distance (km) Brightness Sun altitude
Rises 00:56:35 0° 343° (NNW) 3,222 7.7 -21.3°
Reaches altitude 10° 00:58:58 10° 346° (NNW) 2,300 6.9 -21.0°
Maximum altitude 01:04:11 73° 71° (ENE) 804 4.2 -20.4°
Drops below altitude 10° 01:09:26 10° 156° (SSE) 2,312 6.2 -19.7°
Enters shadow 01:09:35 - 156° (SSE) 2,371 6.3 -19.7°
